This is the latest recevied weather packets stored in our database for station/object VK6WB. If no packets are shown the sender has not sent any weather packets the latest 10 day(s).
| Time | Temp. | Humidity | Pressure | Rain* | Wind** | Luminosity | Snow |
|---|---|---|---|---|---|---|---|
| 1777685404 | 3.89° C | 18% | 1022.8 hPa | 0 mm | - | 10 W/m² | - |
| 1777684804 | 15° C | 16% | 1022.7 hPa | 0 mm | - | 10 W/m² | - |
| 1777684203 | 8.33° C | 15% | 1022.7 hPa | 0 mm | - | 10 W/m² | - |
| 1777683604 | 13.89° C | 14% | 1022.6 hPa | 0 mm | - | 10 W/m² | - |
| 1777683004 | 13.33° C | 15% | 1022.7 hPa | 0 mm | - | 10 W/m² | - |
| 1777682404 | 12.22° C | 16% | 1022.7 hPa | 0 mm | - | 10 W/m² | - |
| 1777681804 | 12.22° C | 14% | 1022.5 hPa | 0 mm | - | 10 W/m² | - |
| 1777681204 | 11.67° C | 16% | 1022.5 hPa | 0 mm | - | 10 W/m² | - |
| 1777680603 | 11.67° C | 14% | 1022.3 hPa | 0 mm | - | 10 W/m² | - |
| 1777680004 | 11.11° C | 14% | 1022.3 hPa | 0 mm | - | 10 W/m² | - |
| 1777679404 | 10.56° C | 16% | 1022.2 hPa | 0 mm | - | 10 W/m² | - |
| 1777678804 | 9.44° C | 21% | 1022.1 hPa | 0 mm | - | 10 W/m² | - |
| 1777678204 | 8.33° C | 28% | 1022 hPa | 0 mm | - | 62 W/m² | - |
| 1777677603 | 7.78° C | 35% | 1022 hPa | 0 mm | - | 62 W/m² | - |
| 1777677004 | 6.67° C | 38% | 1022.1 hPa | 0 mm | - | 113 W/m² | - |
| 1777676404 | 6.11° C | 42% | 1021.9 hPa | 0 mm | - | 113 W/m² | - |
| 1777675803 | 6.11° C | 45% | 1021.9 hPa | 0 mm | - | 165 W/m² | - |
| 1777675204 | 6.67° C | 46% | 1021.8 hPa | 0 mm | - | 165 W/m² | - |
| 1777674604 | 6.67° C | 48% | 1021.5 hPa | 0 mm | - | 217 W/m² | - |
| 1777674004 | 6.67° C | 49% | 1021.5 hPa | 0 mm | - | 269 W/m² | - |
| 1777673403 | 6.67° C | 49% | 1021.4 hPa | 0 mm | - | 269 W/m² | - |
| 1777672804 | 6.67° C | 50% | 1021.5 hPa | 0 mm | - | 320 W/m² | - |
| 1777672203 | 7.22° C | 50% | 1021.4 hPa | 0 mm | - | 320 W/m² | - |
| 1777671619 | 7.22° C | 50% | 1021.2 hPa | 0 mm | - | 372 W/m² | - |
| 1777671004 | 7.78° C | 51% | 1021.1 hPa | 0 mm | - | 424 W/m² | - |
* Rain latest hour (hover to see other rain measurements)
** Current wind speed in m/s (hover to see current wind gust speed)